(121) Hermione
ephemeris date magn radius delta ra dec elong phase
Today18 Oct 202514.03.795 AU4.744 AU14h34m-12°05'15.9°4.1°
Opposition5 Jun 202612.33.595 AU2.580 AU16h52m-22°51'179.7°0.1°
(121) Hermione - 2025-10-18
astro.vanbuitenen.nl


 
-1 year
-1 month
-1 day
Now
+1 day
+1 month
+1 year

The interactive orbit chart above shows the body's path through the solar system and its position at the given date. Green and blue lines are shown perpendicular to the ecliptic plane: Green if the path is above the ecliptic plane, blue if it is below. (Left-click and drag to rotate the view; Right-click and drag to move the view; Use scroll wheel to zoom in our out.)

The orbital elements of Hermione are:

            e (Eccentricity)                : 0.1248676
            a (Semimajor axis)              : 3.4562492
            i (Inclination)                 : 7.56664
            Ω (Longitude of ascending node) : 72.87341
            ω (Argument of perihelion)      : 297.05553
            M (Mean anomaly)                : 197.26865
            Epoch                           : 2025 May 05

            L (Longitude of perihelion)     : 10.13244
            B (Latitude of perihelion)      : -6.73452
            P (Orbital period in years)     : 6.43            
        

The light curve chart below shows the estimated development of the minor planet's magnitude.


The all-sky chart below shows the path of the minor planet over the same period as the light curve. The current position is marked yellow.





The following chart shows the path of the minor planet in the next few days. The field of view is optimized for (~10x50) binoculars and finderscopes.




Ephemerides:
Date       Time       RA (2000)    DEC (2000)    delta   radius  elong  phase   PA    magn
2025-10-18 00:00 UT   14 34 38.2   -12 05 03     4.744    3.795   15.9    4.1    98   14.0 
2025-10-18 22:06 UT   14 35 42.0   -12 10 58     4.746    3.794   15.3    4.0    97   14.0 
2025-10-19 00:00 UT   14 35 47.5   -12 11 28     4.747    3.794   15.2    3.9    97   14.0 
2025-10-20 00:00 UT   14 36 57.0   -12 17 52     4.750    3.794   14.5    3.8    97   14.0 
2025-10-21 00:00 UT   14 38 06.7   -12 24 15     4.752    3.793   13.8    3.6    96   14.0 
2025-10-22 00:00 UT   14 39 16.6   -12 30 37     4.755    3.792   13.2    3.4    95   14.0 
2025-10-23 00:00 UT   14 40 26.6   -12 36 57     4.757    3.792   12.5    3.3    95   14.0 
2025-10-24 00:00 UT   14 41 36.9   -12 43 16     4.759    3.791   11.8    3.1    94   14.0 
2025-10-25 00:00 UT   14 42 47.3   -12 49 33     4.761    3.790   11.1    2.9    93   14.0 
2025-10-26 00:00 UT   14 43 57.9   -12 55 50     4.763    3.790   10.5    2.7    92   14.0 
2025-10-27 00:00 UT   14 45 08.7   -13 02 05     4.765    3.789    9.8    2.6    91   14.0 
2025-10-28 00:00 UT   14 46 19.6   -13 08 18     4.766    3.788    9.1    2.4    90   13.9 
2025-10-29 00:00 UT   14 47 30.6   -13 14 30     4.767    3.788    8.5    2.2    88   13.9 
2025-10-30 00:00 UT   14 48 41.9   -13 20 41     4.768    3.787    7.8    2.0    87   13.9 
2025-10-31 00:00 UT   14 49 53.2   -13 26 50     4.769    3.786    7.2    1.9    85   13.9 
2025-11-01 00:00 UT   14 51 04.7   -13 32 57     4.770    3.786    6.5    1.7    82   13.9 
2025-11-02 00:00 UT   14 52 16.4   -13 39 03     4.771    3.785    5.9    1.5    80   13.9 
2025-11-03 00:00 UT   14 53 28.1   -13 45 07     4.771    3.784    5.3    1.4    76   13.9 
2025-11-04 00:00 UT   14 54 40.0   -13 51 10     4.771    3.784    4.7    1.2    72   13.9 
2025-11-05 00:00 UT   14 55 52.1   -13 57 11     4.771    3.783    4.1    1.1    66   13.8 
2025-11-06 00:00 UT   14 57 04.2   -14 03 10     4.771    3.782    3.6    1.0    59   13.8 
2025-11-07 00:00 UT   14 58 16.5   -14 09 08     4.771    3.781    3.2    0.8    50   13.8 
2025-11-08 00:00 UT   14 59 28.9   -14 15 04     4.770    3.781    2.9    0.7    39   13.8 
2025-11-09 00:00 UT   15 00 41.4   -14 20 58     4.769    3.780    2.7    0.7    25   13.8 
2025-11-10 00:00 UT   15 01 54.0   -14 26 50     4.768    3.779    2.6    0.7     9   13.8 
2025-11-11 00:00 UT   15 03 06.7   -14 32 41     4.767    3.779    2.8    0.7   355   13.8 
2025-11-12 00:00 UT   15 04 19.5   -14 38 30     4.766    3.778    3.1    0.8   343   13.8 
2025-11-13 00:00 UT   15 05 32.4   -14 44 17     4.765    3.777    3.5    0.9   333   13.8 
2025-11-14 00:00 UT   15 06 45.4   -14 50 02     4.763    3.777    4.0    1.1   326   13.8 


    Terminology:
            
    delta:  distance between minor planet and earth in AU
    radius: distance between minor planet and sun in AU
    magn:   magnitude (brightness) estimate    
    ra:     right ascension in hours (24h = 360deg)
    dec:    declination in degrees
    elong:  elongation in degrees (angle sun-earth-minor planet)    
    phase:  phase angle in degrees (angle sun-minor planet-earth)        
    AU:     Astronomical Unit (mean distance between earth and sun: 149597870.7 km
    

Orbital elements provided by the MPC (Minor Planet Center).
Calculations by a modified version of AAPlus, a C# implementation of the AA+ project by PJ Naughter from the algorithms presented in the book "Astronomical Algorithms" by Jean Meeus.
NGC2000 dso catalog and star labels from VizieR as provided by the Strasbourg astronomical Data Center.
Tycho2 catalog from the ESO archive.